TimeEDT,TemperatureF,Dew PointF,Humidity,Sea Level PressureIn,VisibilityMPH,Wind Direction,Wind SpeedMPH,Gust SpeedMPH,PrecipitationIn,Events,Conditions,WindDirDegrees,DateUTC
12:15 AM,66.2,62.6,88,29.95,10.0,NNW,6.9,-,N/A,,Mostly Cloudy,330,2013-04-06 04:15:00
12:35 AM,66.2,60.8,83,29.96,10.0,NNW,11.5,-,N/A,,Overcast,330,2013-04-06 04:35:00
12:55 AM,66.2,60.8,83,29.95,10.0,NNW,11.5,17.3,N/A,,Mostly Cloudy,340,2013-04-06 04:55:00
1:15 AM,64.4,60.8,88,29.95,10.0,NNW,10.4,-,N/A,,Mostly Cloudy,340,2013-04-06 05:15:00
1:35 AM,64.4,60.8,88,29.96,10.0,NNW,9.2,-,N/A,,Mostly Cloudy,330,2013-04-06 05:35:00
1:55 AM,64.4,60.8,88,29.96,10.0,NNW,10.4,19.6,N/A,,Mostly Cloudy,330,2013-04-06 05:55:00
2:15 AM,64.4,60.8,88,29.96,10.0,NW,10.4,16.1,N/A,,Mostly Cloudy,320,2013-04-06 06:15:00
2:35 AM,62.6,59.0,88,29.96,10.0,NW,5.8,-,N/A,,Mostly Cloudy,320,2013-04-06 06:35:00
2:55 AM,62.6,59.0,88,29.97,10.0,NW,10.4,-,N/A,,Overcast,310,2013-04-06 06:55:00
3:15 AM,62.6,59.0,88,29.97,10.0,NW,10.4,16.1,N/A,,Overcast,320,2013-04-06 07:15:00
3:35 AM,62.6,59.0,88,29.97,10.0,NW,9.2,-,N/A,,Overcast,310,2013-04-06 07:35:00
3:55 AM,62.6,59.0,88,29.97,10.0,NW,9.2,-,N/A,,Overcast,320,2013-04-06 07:55:00
4:15 AM,60.8,57.2,88,29.97,10.0,NW,8.1,-,N/A,,Overcast,320,2013-04-06 08:15:00
4:35 AM,60.8,57.2,88,29.97,10.0,NW,9.2,-,N/A,,Mostly Cloudy,320,2013-04-06 08:35:00
4:55 AM,60.8,57.2,88,29.97,10.0,NW,6.9,-,N/A,,Scattered Clouds,320,2013-04-06 08:55:00
5:15 AM,59.0,57.2,94,29.98,10.0,NNW,9.2,-,N/A,,Mostly Cloudy,330,2013-04-06 09:15:00
5:35 AM,59.0,55.4,88,29.99,10.0,NW,6.9,-,N/A,,Mostly Cloudy,320,2013-04-06 09:35:00
5:55 AM,59.0,55.4,88,29.99,10.0,NW,8.1,-,N/A,,Mostly Cloudy,320,2013-04-06 09:55:00
6:15 AM,59.0,55.4,88,30.00,10.0,NW,9.2,-,N/A,,Overcast,320,2013-04-06 10:15:00
7:47 AM,59.0,55.4,88,30.03,7.0,NW,13.8,19.6,N/A,,Scattered Clouds,310,2013-04-06 11:47:00
8:47 AM,62.6,57.2,82,30.05,10.0,NW,11.5,-,N/A,,Partly Cloudy,320,2013-04-06 12:47:00
9:47 AM,66.2,59.0,78,30.05,10.0,NW,9.2,-,N/A,,Scattered Clouds,320,2013-04-06 13:47:00
10:47 AM,69.8,60.8,73,30.05,10.0,North,15.0,-,N/A,,Scattered Clouds,350,2013-04-06 14:47:00
11:47 AM,73.4,64.4,73,30.06,10.0,North,18.4,27.6,N/A,,Scattered Clouds,350,2013-04-06 15:47:00
12:47 PM,73.4,64.4,73,30.07,10.0,North,16.1,-,N/A,,Scattered Clouds,10,2013-04-06 16:47:00
2:47 PM,77.0,57.2,50,30.05,10.0,North,17.3,23.0,N/A,,Scattered Clouds,10,2013-04-06 18:47:00
3:47 PM,77.0,55.4,47,30.06,10.0,NE,11.5,18.4,N/A,,Scattered Clouds,40,2013-04-06 19:47:00
4:47 PM,77.0,55.4,47,30.06,10.0,NNE,11.5,17.3,N/A,,Scattered Clouds,30,2013-04-06 20:47:00
5:47 PM,75.2,53.6,47,30.07,10.0,NNE,10.4,-,N/A,,Scattered Clouds,30,2013-04-06 21:47:00
6:47 PM,75.2,55.4,50,30.08,10.0,NE,9.2,-,N/A,,Scattered Clouds,40,2013-04-06 22:47:00
8:15 PM,71.6,60.8,69,30.10,10.0,NNE,6.9,-,N/A,,Scattered Clouds,30,2013-04-07 00:15:00
8:35 PM,71.6,60.8,69,30.10,10.0,NNE,6.9,-,N/A,,Scattered Clouds,30,2013-04-07 00:35:00
8:55 PM,71.6,60.8,69,30.10,10.0,NNE,6.9,-,N/A,,Scattered Clouds,20,2013-04-07 00:55:00
9:15 PM,71.6,62.6,73,30.10,10.0,NNE,5.8,-,N/A,,Scattered Clouds,30,2013-04-07 01:15:00
9:35 PM,69.8,62.6,78,30.11,10.0,NE,4.6,-,N/A,,Scattered Clouds,40,2013-04-07 01:35:00
9:55 PM,71.6,62.6,73,30.11,10.0,ENE,10.4,-,N/A,,Scattered Clouds,60,2013-04-07 01:55:00
10:15 PM,71.6,62.6,73,30.11,10.0,ENE,11.5,17.3,N/A,,Scattered Clouds,60,2013-04-07 02:15:00
10:35 PM,71.6,62.6,73,30.11,10.0,ENE,11.5,-,N/A,,Clear,70,2013-04-07 02:35:00
10:55 PM,71.6,62.6,73,30.11,10.0,ENE,12.7,17.3,N/A,,Scattered Clouds,70,2013-04-07 02:55:00
11:15 PM,71.6,60.8,69,30.12,10.0,ENE,12.7,17.3,N/A,,Scattered Clouds,70,2013-04-07 03:15:00
11:35 PM,71.6,60.8,69,30.12,10.0,ENE,10.4,18.4,N/A,,Scattered Clouds,70,2013-04-07 03:35:00
11:55 PM,71.6,60.8,69,30.12,10.0,ENE,11.5,-,N/A,,Scattered Clouds,70,2013-04-07 03:55:00